Location: Bernay
(48.6766°N, 2.9386°E)
Time: 09:23:01
(UTC+00:00)

SJ-7 - Pass Details

Date: 12 January 2026
Orbit: 495 x 520 km, 97.7° (Epoch: 16 February)

Event Time Altitude Azimuth Distance (km) Brightness Sun altitude
Rises 18:18:44 0° 168° (SSE) 2,643 7.8 -19.6°
Reaches altitude 10° 18:20:50 10° 170° (S) 1,760 6.9 -19.9°
Maximum altitude 18:24:38 79° 256° (WSW) 540 4.3 -20.5°
Drops below altitude 10° 18:28:28 10° 344° (NNW) 1,770 7.0 -21.1°
Sets 18:30:34 0° 346° (NNW) 2,660 7.9 -21.5°
